CAPE
0 0 0 0 0 0 0 0 0 0 0 0 0 0 0 0 0 0 0 0 0 0 0 0 0 0 0 0 0 0 0 0 0 0 0 0 0 0 0 0 0 0 0
0 0 0 0 0 0 0 0 0 0 0 0 0 0 0 0 0 0 0 0 0 0 0 0 0 0 0 0 0 0 0 0 0 0 0 0 0 0 0 0 0 0 0
0 0 0 0 0 0 0 0 0 0 0 0 0 0 0 0 0 0 0 0 0 0 0 0 0 0 0 0 0 0 0 0 0 0 0 0 0 0 0 0 0 0 0
0 0 0 0 0 0 0 0 0 0 0 0 0 0 0 0 0 0 0 0 0 0 0 0 0 0 0 0 0 0 0 0 0 0 0 0 0 0 0 0 0 0 0
0 0 0 0 0 0 0 0 0 0 0 0 0 0 0 0 0 0 0 0 0 0 0 0 0 0 0 0 0 0 0 0 0 0 0 0 0 0 0 0 0 0 0
0 0 0 0 0 0 0 0 0 0 0 0 0 0 0 0 0 0 0 0 0 0 0 0 0 0 0 0 0 0 0 0 0 0 0 0 0 0 0 0 0 0 0
0 0 0 0 0 0 0 0 0 0 0 0 0 0 0 0 0 0 0 0 0 0 0 0 0 0 0 0 0 0 0 0 1 1 1 0 0 0 0 0 0 0 0
0 0 0 0 0 0 0 0 0 0 0 0 0 0 0 0 0 0 0 0 0 0 0 0 0 0 0 0 0 0 0 0 2 5 3 3 2 3 6 6 9 2 10
0 0 0 0 0 0 0 0 0 0 0 0 0 0 0 0 0 0 0 0 0 0 0 0 0 0 0 0 0 0 0 0 0 0 0 3 3 1 0 0 0 0 0
0 0 0 0 0 0 0 0 0 0 0 0 0 0 0 0 0 0 0 0 0 0 0 0 0 0 0 1 0 0 0 0 0 0 0 0 0 0 0 0 1 1 1
0 0 0 0 0 0 0 0 0 0 0 0 0 0 0 0 0 0 0 0 0 0 0 0 0 0 0 3 7 0 0 1 0 0 0 0 0 0 0 0 0 0 0
0 0 0 0 0 0 0 0 0 0 0 0 0 0 0 0 0 0 0 0 0 0 0 0 0 0 2 5 1 0 0 0 0 0 0 0 0 0 0 0 0 0 1
0 0 0 0 0 0 0 0 0 0 0 0 0 0 0 0 0 0 0 0 0 0 0 0 2 2 0 0 0 0 0 0 0 0 0 0 0 0 0 0 0 0 0
0 0 0 0 0 0 0 0 0 0 0 0 0 0 0 0 0 0 0 0 0 0 0 0 0 0 0 0 0 0 0 0 0 0 0 0 0 0 0 0 0 0 0
0 0 0 0 0 0 0 0 0 0 0 0 0 0 0 0 0 0 0 0 0 0 0 0 0 0 0 0 0 0 0 0 0 0 0 0 0 0 0 0 0 0 0
0 0 0 0 0 0 0 0 0 0 0 0 0 0 0 0 0 0 0 1 2 7 0 0 0 0 0 0 0 0 0 0 0 0 0 0 0 0 0 0 0 0 0
0 0 0 0 0 0 0 0 0 0 0 0 0 1 1 0 2 7 8 7 10 7 0 0 0 0 0 0 0 0 0 0 0 0 0 0 0 0 0 0 0 0 0
0 0 0 0 0 0 0 0 0 0 0 0 0 0 0 0 0 0 1 3 0 0 0 0 0 0 0 0 0 0 0 0 0 0 0 0 0 0 0 0 0 0 0
0 0 0 0 0 0 0 0 0 0 0 0 0 0 0 0 0 0 1 0 0 0 0 0 0 0 0 0 0 0 0 0 0 0 0 0 0 0 0 0 0 0 0
0 0 0 0 0 0 0 0 0 0 0 0 0 0 0 0 0 0 0 0 0 0 0 0 0 0 0 0 0 0 0 0 0 0 0 0 0 0 0 0 0 0 0
0 0 0 0 0 0 0 0 0 0 0 0 0 0 0 0 0 0 0 0 0 0 0 0 0 0 0 0 0 0 0 0 0 0 0 0 0 0 0 0 0 0 0
0 0 0 0 0 0 0 0 0 0 0 0 0 0 0 0 0 0 0 0 0 0 0 0 0 0 0 0 0 0 0 0 0 0 0 0 0 0 0 0 0 0 0
0 0 0 0 0 0 0 0 0 0 0 0 0 0 0 0 0 0 0 0 0 0 0 0 0 0 0 0 0 0 0 0 0 0 0 0 0 0 0 0 0 0 0
0 0 0 0 0 0 0 0 0 0 0 0 0 0 0 0 0 0 0 0 0 0 0 0 0 0 0 0 0 0 0 0 0 0 0 0 0 0 0 0 0 0 0
0 0 0 0 0 0 0 0 0 0 0 0 0 0 0 0 0 0 0 0 0 0 0 0 0 0 0 0 0 0 0 0 0 0 0 0 0 0 0 0 0 0 0
0 0 0 0 0 0 0 0 0 0 0 0 0 0 0 0 0 0 0 0 0 0 0 0 0 0 0 0 0 0 0 0 0 0 0 0 0 0 0 0 0 0 0
CIN
0 0 0 0 0 0 0 0 0 0 0 0 0 0 0 0 0 0 0 0 0 0 0 0 0 0 0 0 0 0 0 0 0 0 0 0 0 0 0 0 0 0 0
0 0 0 0 0 0 0 0 0 0 0 0 0 0 0 0 0 0 0 0 0 0 0 0 0 0 0 0 0 0 0 0 0 0 0 0 0 0 0 0 0 0 0
0 0 0 0 0 0 0 0 0 0 0 0 0 0 0 0 0 0 0 0 0 0 0 0 0 0 0 0 0 0 0 0 0 0 0 0 0 0 0 0 0 0 0
0 0 0 0 0 0 0 0 0 0 0 0 0 0 0 0 0 0 0 0 0 0 0 0 0 0 0 0 0 0 0 0 0 0 0 0 0 0 0 0 0 0 0
0 0 0 0 0 0 0 0 0 0 0 0 0 0 0 0 0 0 0 0 0 0 0 0 0 0 0 0 0 0 0 0 0 0 0 0 0 0 0 0 0 0 0
0 0 0 0 0 0 0 0 0 0 0 0 0 0 0 0 0 0 0 0 0 0 0 0 0 0 0 0 0 0 0 0 0 0 0 0 0 0 0 0 0 0 0
0 0 0 0 0 0 0 0 0 0 0 0 0 0 0 0 0 0 0 0 0 0 0 0 0 0 0 0 0 0 0 0 -1 -2 -2 0 0 0 0 0 0 0 0
0 0 0 0 0 0 0 0 0 0 0 0 0 0 0 0 0 0 0 0 0 0 0 0 0 0 0 0 0 0 0 0 0 0 -2 -1 0 0 -3 -3 -2 -1 -2
0 0 0 0 0 0 0 0 0 0 0 0 0 0 0 0 0 0 0 0 0 0 0 0 0 0 0 0 -1 0 0 0 0 0 -1 -2 -2 -3 -3 -3 0 0 -1
0 0 0 0 0 0 0 0 0 0 0 0 0 0 0 0 0 0 0 0 0 0 0 0 0 0 0 -1 -1 0 0 0 0 0 0 0 0 0 0 0 0 -2 -2
0 0 0 0 0 0 0 0 0 0 0 0 0 0 0 0 0 0 0 0 0 0 0 0 0 0 -1 -1 -1 0 0 -1 0 0 0 0 0 0 0 0 0 0 0
0 0 0 0 0 0 0 0 0 0 0 0 0 0 0 0 0 0 0 0 0 0 0 0 0 -1 -1 -1 -1 0 -1 0 0 0 0 0 0 0 0 0 0 0 0
0 0 0 0 0 0 0 0 0 0 0 0 0 0 0 0 0 0 0 0 0 0 0 0 -1 -1 0 0 0 0 0 0 0 0 0 0 0 0 0 0 0 0 0
0 0 0 0 0 0 0 0 0 0 0 0 0 0 0 0 0 0 0 0 0 0 0 0 0 0 0 0 0 0 0 0 0 0 0 0 0 0 0 0 0 0 0
0 0 0 0 0 0 0 0 0 0 0 0 0 0 0 0 0 0 0 0 0 0 0 0 0 0 0 0 0 0 0 0 0 0 0 0 0 0 0 0 0 0 0
0 0 0 0 0 0 0 0 0 0 0 0 0 0 0 0 0 0 -2 -2 -3 -1 0 0 0 0 0 0 0 0 0 0 0 0 0 0 0 0 0 0 0 0 0
0 0 0 0 0 0 0 0 0 0 0 0 -1 -1 -2 -3 -1 -1 -1 -1 -1 -3 0 0 0 0 0 0 0 0 0 0 0 0 0 0 0 0 0 0 0 0 0
0 0 0 0 0 0 0 0 0 0 0 0 0 0 0 0 0 -1 -2 -2 0 0 0 0 0 0 0 0 0 0 0 0 0 0 0 0 0 0 0 0 0 0 0
0 0 0 0 0 0 0 0 0 0 0 0 0 0 0 0 0 0 -1 0 0 0 0 0 0 0 0 0 0 0 0 0 0 0 0 0 0 0 0 0 0 0 0
0 0 0 0 0 0 0 0 0 0 0 0 0 0 0 0 0 0 0 0 0 0 0 0 0 0 0 0 0 0 0 0 0 0 0 0 0 0 0 0 0 0 0
0 0 0 0 0 0 0 0 0 0 0 0 0 0 0 0 0 0 0 0 0 0 0 0 0 0 0 0 0 0 0 0 0 0 0 0 0 0 0 0 0 0 0
0 0 0 0 0 0 0 0 0 0 0 0 0 0 0 0 0 0 0 0 0 0 0 0 0 0 0 0 0 0 0 0 0 0 0 0 0 0 0 0 0 0 0
0 0 0 0 0 0 0 0 0 0 0 0 0 0 0 0 0 0 0 0 0 0 0 0 0 0 0 0 0 0 0 0 0 0 0 0 0 0 0 0 0 0 0
0 0 0 0 0 0 0 0 0 0 0 0 0 0 0 0 0 0 0 0 0 0 0 0 0 0 0 0 0 0 0 0 0 0 0 0 0 0 0 0 0 0 0
0 0 0 0 0 0 0 0 0 0 0 0 0 0 0 0 0 0 0 0 0 0 0 0 0 0 0 0 0 0 0 0 0 0 0 0 0 0 0 0 0 0 0
0 0 0 0 0 0 0 0 0 0 0 0 0 0 0 0 0 0 0 0 0 0 0 0 0 0 0 0 0 0 0 0 0 0 0 0 0 0 0 0 0 0 0
Wind_Speed
8 8 8 9 10 11 12 12 13 16 18 20 21 23 24 26 28 29 30 31 33 34 34 36 36 36 37 38 38 39 41 42 50 57 51 52 55 54 55 54 53 54 52
10 9 10 10 11 12 12 13 14 16 18 19 21 22 24 26 28 30 31 32 34 36 36 35 36 36 37 38 39 41 42 42 46 55 54 54 54 53 54 56 53 50 51
12 11 11 12 12 13 13 14 15 16 18 19 20 22 24 26 28 30 30 33 34 34 34 34 36 36 38 38 38 41 42 43 43 48 56 52 53 52 54 52 52 51 48
14 14 14 14 14 14 14 14 16 16 18 19 20 23 25 26 28 29 32 32 33 33 33 33 34 35 36 37 39 39 41 43 45 47 51 53 53 52 50 52 53 49 50
17 17 16 15 15 15 16 16 16 17 19 19 22 24 25 27 28 30 30 32 33 34 33 33 32 32 34 36 37 39 41 43 45 48 51 53 53 52 52 50 51 51 49
19 19 17 16 16 17 17 17 18 18 20 21 23 25 28 29 29 28 30 32 32 34 35 33 32 33 34 35 37 38 40 44 48 49 50 51 53 50 48 49 50 52 56
20 18 18 18 19 18 18 19 20 22 21 24 25 26 28 28 28 28 29 30 32 34 34 33 34 33 34 36 37 38 39 39 41 46 51 49 52 48 48 50 48 49 51
19 19 19 19 19 19 19 21 22 23 24 25 26 27 28 27 27 27 28 30 32 33 33 33 33 34 34 36 38 39 39 41 43 44 45 47 47 46 45 47 49 50 46
21 20 19 19 20 20 22 22 22 23 25 26 27 26 26 27 27 27 28 31 33 33 32 32 32 33 34 35 38 41 43 45 44 46 45 46 48 49 48 47 46 48 48
21 20 18 19 20 21 22 22 23 24 26 25 26 26 26 27 26 27 28 30 33 34 33 32 31 32 34 35 37 41 46 48 47 46 47 46 42 42 43 40 41 42 44
15 16 17 18 20 21 21 22 23 24 24 25 26 26 27 27 27 28 28 29 31 33 32 33 32 33 34 34 35 40 42 43 44 46 44 43 41 41 40 40 39 41 45
15 17 17 18 20 20 21 22 21 21 23 25 26 28 27 28 28 28 27 26 28 31 33 33 33 33 32 32 37 39 39 40 42 42 41 41 41 42 42 43 42 41 40
16 17 18 19 20 20 20 21 22 22 24 25 27 29 30 28 27 26 26 27 28 31 32 31 32 32 32 34 36 35 37 38 38 39 39 39 41 43 44 43 40 39 39
17 18 19 20 20 20 21 22 23 24 25 26 27 30 30 29 27 27 27 28 29 31 31 32 30 30 30 33 35 34 34 34 34 35 38 41 42 41 43 42 43 42 42
20 20 20 20 21 22 22 23 24 24 24 26 27 28 31 32 29 28 29 29 29 29 31 31 31 32 34 34 33 32 33 33 33 35 38 42 41 41 42 41 40 41 41
22 22 22 22 23 25 26 26 24 23 24 25 26 28 29 30 30 31 31 31 31 29 33 33 34 34 34 33 32 33 32 33 34 35 37 36 39 40 41 40 39 39 41
23 23 24 24 25 25 25 25 28 25 26 27 28 29 31 33 33 35 35 34 34 32 34 34 34 33 32 31 30 31 33 35 34 35 34 34 36 35 37 38 39 39 39
23 23 23 23 23 23 23 24 26 30 33 32 31 33 34 36 37 38 37 38 39 35 35 34 33 31 30 29 29 29 36 36 35 33 33 34 33 34 36 36 38 38 39
22 22 21 21 21 22 24 26 29 32 34 36 36 37 37 39 41 41 41 41 41 38 34 33 31 30 29 28 28 32 38 37 35 33 33 30 31 33 33 34 35 37 38
21 20 20 21 22 24 26 29 31 33 36 38 40 42 42 42 44 45 44 43 41 37 34 33 32 30 29 29 30 37 39 38 35 33 31 30 29 28 31 34 33 36 38
20 21 21 22 25 26 27 29 31 35 38 40 41 41 42 45 46 45 43 40 37 34 33 32 31 30 30 31 32 39 38 36 33 31 29 26 26 27 29 30 30 32 38
21 21 23 24 25 26 28 30 33 36 38 40 41 41 42 43 43 42 40 38 32 27 27 28 29 30 34 35 37 38 37 37 36 27 24 22 21 22 24 27 29 33 38
21 23 24 25 26 28 30 32 34 35 37 38 39 41 41 39 38 37 35 32 29 27 26 27 31 35 37 37 37 37 37 35 30 20 17 16 15 16 19 23 25 33 36
22 23 24 26 27 29 32 33 34 35 36 37 38 38 37 36 34 32 29 26 23 21 23 30 34 36 36 36 36 35 34 28 19 7 6 7 6 8 14 17 19 28 34
23 24 26 28 30 31 32 33 34 35 35 36 36 35 33 31 29 27 23 20 20 22 31 33 33 34 34 34 34 33 31 27 18 10 4 4 4 5 8 12 16 23 30
24 26 28 28 30 31 33 34 34 35 36 35 33 32 29 28 25 22 19 14 8 27 29 30 30 31 32 32 31 31 29 26 18 7 2 3 5 6 9 10 14 18 24
Wind_Direction
277 290 301 309 316 322 325 327 330 333 334 336 338 340 340 341 342 341 339 338 336 335 335 332 331 331 330 329 329 327 325 323 316 314 317 317 314 312 311 311 309 306 303
274 283 291 299 305 311 315 319 324 326 331 333 335 337 337 338 339 338 337 336 333 333 332 331 331 331 330 330 329 327 326 325 321 316 318 318 316 315 313 310 309 308 305
270 278 285 290 296 302 307 312 318 322 327 329 330 331 333 335 335 335 335 333 333 333 332 331 330 330 329 330 330 328 326 325 324 321 318 320 318 318 315 313 311 308 306
264 270 276 283 289 297 303 307 312 317 320 322 325 328 329 330 332 332 332 333 334 333 333 331 330 329 329 330 329 328 328 326 325 323 321 321 321 320 318 314 311 312 308
265 270 275 283 289 296 298 302 306 312 314 317 320 323 324 326 328 329 331 332 332 332 332 331 330 330 330 329 329 328 328 327 326 324 323 322 321 320 317 317 313 311 310
265 270 276 280 285 290 294 297 301 306 310 312 315 317 319 322 324 327 329 329 331 331 330 331 330 329 329 329 328 328 328 327 325 324 323 322 320 319 319 316 313 310 304
265 269 274 280 285 287 290 294 296 300 304 307 310 313 316 318 321 323 325 327 328 329 329 329 329 329 329 328 328 328 328 328 327 326 322 321 319 320 318 314 313 310 307
266 271 277 281 283 285 287 291 295 298 300 304 307 310 313 315 318 320 322 325 326 327 327 327 326 327 328 328 327 327 328 328 328 327 325 323 321 320 319 316 313 310 310
274 276 277 278 283 285 287 290 293 296 300 303 307 308 310 313 316 318 320 323 324 325 326 326 325 326 327 327 327 327 327 327 328 327 326 324 322 319 318 317 313 310 307
279 281 281 282 284 286 289 290 294 297 299 303 305 307 309 312 314 316 319 321 322 324 325 325 325 326 326 327 328 328 326 327 329 330 328 327 328 327 323 321 318 313 309
285 287 288 287 288 289 292 295 295 298 301 303 305 308 310 311 313 315 316 318 320 322 324 325 327 327 327 327 329 330 328 330 330 329 329 330 330 328 325 322 318 313 307
292 292 293 294 295 295 295 298 299 299 301 304 307 309 310 311 312 314 315 315 319 320 321 324 326 327 327 329 330 330 330 332 331 331 331 330 329 327 324 320 317 314 313
297 296 297 300 300 299 298 298 301 301 302 304 307 309 311 313 314 314 316 316 317 318 321 322 324 328 329 329 330 331 332 333 333 332 331 329 325 320 322 324 326 322 319
297 298 300 300 301 301 302 301 301 300 302 305 308 310 313 314 314 315 316 316 317 317 318 320 322 324 327 328 329 330 332 334 334 333 328 321 321 326 325 326 324 325 322
297 297 299 300 300 301 302 303 303 305 304 307 309 311 312 312 313 314 314 314 314 315 316 319 320 321 323 325 327 328 331 333 333 329 324 318 324 326 328 330 331 330 327
297 296 298 300 301 303 304 305 308 308 309 310 312 314 315 315 315 313 313 312 311 311 315 314 315 317 319 321 324 326 330 330 330 329 327 328 327 328 330 334 336 334 331
300 300 301 302 304 304 306 307 308 313 314 313 314 314 314 314 314 313 312 310 309 308 308 310 311 313 315 317 320 324 326 325 327 326 328 329 330 334 335 336 336 337 336
308 307 306 307 308 309 310 311 313 313 314 315 318 318 317 316 315 314 312 311 309 307 307 306 307 309 311 313 317 322 317 321 323 326 328 329 333 335 336 338 338 340 337
310 311 312 313 314 314 314 314 315 315 315 316 318 318 318 316 315 314 313 309 307 306 303 303 305 306 307 310 313 316 310 316 320 324 326 332 334 335 338 340 340 340 339
315 313 313 313 313 313 314 315 316 317 317 318 319 319 319 319 316 315 313 310 306 304 303 302 302 302 303 306 309 303 304 310 315 320 326 332 336 340 340 340 343 340 340
314 314 315 315 314 315 316 317 318 319 319 320 320 321 320 318 317 315 313 312 308 304 302 300 299 299 300 301 302 292 300 305 313 320 329 337 340 342 344 345 347 346 335
315 315 316 315 316 317 318 319 320 320 321 322 323 324 324 323 322 320 318 318 315 309 306 303 297 295 291 291 288 286 291 286 294 325 335 342 346 348 350 349 349 343 333
317 317 317 318 319 320 320 320 321 322 323 325 326 327 328 328 327 326 325 323 319 312 308 302 292 285 280 279 275 279 275 268 261 334 342 348 352 354 356 355 355 343 335
318 318 319 319 320 320 320 321 322 324 325 327 329 330 331 332 332 332 332 332 328 322 312 293 276 268 268 265 266 264 258 244 235 241 334 343 337 347 358 360 2 352 340
319 318 319 319 319 320 321 322 323 325 326 328 329 331 333 336 338 340 342 342 336 326 290 268 262 260 257 257 257 256 251 243 231 228 262 308 320 331 352 2 4 1 349
318 318 319 320 320 320 320 321 323 324 325 328 329 331 335 338 343 345 347 354 353 260 257 256 256 254 255 255 254 253 249 244 229 219 312 329 336 349 357 1 2 3 357